Hourly Weather Pugachevka

Today, 12 May, Wednesday

Time Temperature Precipitation Wind Pressure Humidity
00:00 +9°C° 0 mm 2 mps 762 mmHg 77%
01:00 +9°C° 0 mm 2 mps 761 mmHg 80%
02:00 +9°C° 0 mm 2 mps 761 mmHg 84%
03:00 +9°C° 0 mm 2 mps 761 mmHg 87%
04:00 +9°C° 1.4 mm 3 mps 760 mmHg 90%
05:00 +10°C° 1.4 mm 3 mps 760 mmHg 93%
06:00 +11°C° 1.4 mm 3 mps 759 mmHg 97%
07:00 +12°C° 0.5 mm 4 mps 759 mmHg 94%
08:00 +13°C° 0.5 mm 5 mps 759 mmHg 90%
09:00 +14°C° 0.5 mm 5 mps 758 mmHg 87%
10:00 +14°C° 0 mm 5 mps 758 mmHg 85%
11:00 +15°C° 0 mm 5 mps 758 mmHg 83%
12:00 +15°C° 0 mm 5 mps 758 mmHg 80%
13:00 +16°C° 0.2 mm 5 mps 758 mmHg 79%
14:00 +17°C° 0.2 mm 5 mps 758 mmHg 77%
15:00 +19°C° 0.2 mm 5 mps 759 mmHg 76%
16:00 +19°C° 0.1 mm 4 mps 759 mmHg 76%
17:00 +19°C° 0.1 mm 3 mps 759 mmHg 76%
18:00 +19°C° 0.1 mm 2 mps 759 mmHg 76%
19:00 +17°C° 0 mm 2 mps 759 mmHg 79%
20:00 +16°C° 0 mm 1 mps 759 mmHg 83%
21:00 +15°C° 0 mm 1 mps 759 mmHg 86%
22:00 +14°C° 0 mm 1 mps 759 mmHg 88%
23:00 +14°C° 0 mm 2 mps 759 mmHg 89%

Tomorrow, 13 May, Thursday

Time Temperature Precipitation Wind Pressure Humidity
00:00 +13°C° 0 mm 3 mps 758 mmHg 90%
01:00 +13°C° 0.1 mm 3 mps 758 mmHg 90%
02:00 +14°C° 0.1 mm 4 mps 758 mmHg 89%
03:00 +14°C° 0.1 mm 4 mps 757 mmHg 89%
04:00 +14°C° 0.4 mm 4 mps 757 mmHg 87%
05:00 +14°C° 0.4 mm 4 mps 757 mmHg 86%
06:00 +14°C° 0.4 mm 4 mps 757 mmHg 84%
07:00 +15°C° 0 mm 4 mps 757 mmHg 85%
08:00 +17°C° 0 mm 4 mps 757 mmHg 85%
09:00 +17°C° 0 mm 4 mps 757 mmHg 85%
10:00 +19°C° 0 mm 5 mps 757 mmHg 78%
11:00 +21°C° 0 mm 5 mps 757 mmHg 70%
12:00 +23°C° 0 mm 6 mps 757 mmHg 63%
13:00 +23°C° 0.1 mm 5 mps 757 mmHg 63%
14:00 +23°C° 0.1 mm 5 mps 757 mmHg 63%
15:00 +23°C° 0.1 mm 5 mps 757 mmHg 63%
16:00 +24°C° 0 mm 3 mps 757 mmHg 65%
17:00 +23°C° 0 mm 2 mps 756 mmHg 68%
18:00 +23°C° 0 mm 1 mps 756 mmHg 70%
19:00 +22°C° 0.1 mm 1 mps 757 mmHg 73%
20:00 +21°C° 0.1 mm 1 mps 757 mmHg 75%
21:00 +20°C° 0.1 mm 1 mps 757 mmHg 78%
22:00 +19°C° 0 mm 1 mps 757 mmHg 79%
23:00 +17°C° 0 mm 0 mps 757 mmHg 79%

Day after tomorrow, 14 May, Friday

Time Temperature Precipitation Wind Pressure Humidity
00:00 +17°C° 0 mm 0 mps 758 mmHg 80%
01:00 +18°C° 0.1 mm 1 mps 758 mmHg 81%
02:00 +18°C° 0.1 mm 1 mps 758 mmHg 83%
03:00 +17°C° 0.1 mm 2 mps 758 mmHg 85%
04:00 +17°C° 0 mm 2 mps 758 mmHg 84%
05:00 +17°C° 0 mm 2 mps 758 mmHg 82%
06:00 +18°C° 0 mm 2 mps 758 mmHg 81%
07:00 +19°C° 0 mm 3 mps 758 mmHg 70%
08:00 +21°C° 0 mm 4 mps 758 mmHg 59%
09:00 +23°C° 0 mm 5 mps 758 mmHg 47%
10:00 +25°C° 0 mm 5 mps 758 mmHg 46%
11:00 +26°C° 0 mm 5 mps 758 mmHg 44%
12:00 +27°C° 0 mm 5 mps 758 mmHg 42%
13:00 +27°C° 0 mm 5 mps 758 mmHg 42%
14:00 +28°C° 0 mm 5 mps 758 mmHg 41%
15:00 +29°C° 0 mm 5 mps 758 mmHg 40%
16:00 +28°C° 0 mm 5 mps 757 mmHg 44%
17:00 +27°C° 0 mm 4 mps 757 mmHg 47%
18:00 +26°C° 0 mm 3 mps 757 mmHg 51%
19:00 +25°C° 0 mm 3 mps 757 mmHg 52%
20:00 +22°C° 0 mm 3 mps 757 mmHg 54%
21:00 +21°C° 0 mm 4 mps 757 mmHg 56%
22:00 +20°C° 0 mm 3 mps 757 mmHg 56%
23:00 +19°C° 0 mm 3 mps 757 mmHg 56%

15 May, Saturday

Time Temperature Precipitation Wind Pressure Humidity
00:00 +18°C° 0 mm 3 mps 757 mmHg 56%
01:00 +18°C° 0 mm 3 mps 757 mmHg 56%
02:00 +17°C° 0 mm 2 mps 757 mmHg 56%
03:00 +17°C° 0 mm 2 mps 757 mmHg 55%
04:00 +17°C° 0 mm 2 mps 758 mmHg 56%
05:00 +17°C° 0 mm 2 mps 758 mmHg 56%
06:00 +18°C° 0 mm 2 mps 758 mmHg 56%
07:00 +19°C° 0 mm 3 mps 758 mmHg 50%
08:00 +21°C° 0 mm 4 mps 758 mmHg 44%
09:00 +23°C° 0 mm 4 mps 758 mmHg 38%
10:00 +26°C° 0 mm 5 mps 758 mmHg 36%
11:00 +27°C° 0 mm 6 mps 758 mmHg 35%
12:00 +28°C° 0 mm 6 mps 757 mmHg 33%
13:00 +29°C° 0 mm 6 mps 757 mmHg 32%
14:00 +29°C° 0 mm 5 mps 757 mmHg 32%
15:00 +30°C° 0 mm 5 mps 757 mmHg 32%
16:00 +29°C° 0 mm 4 mps 757 mmHg 36%
17:00 +28°C° 0 mm 4 mps 756 mmHg 40%
18:00 +27°C° 0 mm 3 mps 756 mmHg 45%
19:00 +25°C° 0 mm 3 mps 756 mmHg 48%
20:00 +24°C° 0 mm 3 mps 756 mmHg 51%
21:00 +21°C° 0 mm 3 mps 756 mmHg 54%
22:00 +20°C° 0 mm 3 mps 756 mmHg 55%
23:00 +20°C° 0 mm 3 mps 756 mmHg 56%

16 May, Sunday

Time Temperature Precipitation Wind Pressure Humidity
00:00 +19°C° 0 mm 2 mps 756 mmHg 57%
01:00 +18°C° 0 mm 2 mps 756 mmHg 57%
02:00 +18°C° 0 mm 2 mps 756 mmHg 56%
03:00 +17°C° 0 mm 2 mps 756 mmHg 55%
04:00 +18°C° 0 mm 2 mps 756 mmHg 57%
05:00 +18°C° 0 mm 2 mps 756 mmHg 58%
06:00 +18°C° 0 mm 2 mps 757 mmHg 59%
07:00 +20°C° 0 mm 2 mps 757 mmHg 53%
08:00 +22°C° 0 mm 3 mps 757 mmHg 48%
09:00 +25°C° 0 mm 4 mps 757 mmHg 42%
10:00 +26°C° 0 mm 4 mps 757 mmHg 39%
11:00 +28°C° 0 mm 4 mps 757 mmHg 36%
12:00 +29°C° 0 mm 4 mps 757 mmHg 33%
13:00 +30°C° 0 mm 4 mps 756 mmHg 32%
14:00 +30°C° 0 mm 4 mps 756 mmHg 31%
15:00 +32°C° 0 mm 4 mps 756 mmHg 31%
16:00 +30°C° 0 mm 4 mps 755 mmHg 35%
17:00 +29°C° 0 mm 3 mps 755 mmHg 39%
18:00 +29°C° 0 mm 2 mps 755 mmHg 43%
19:00 +27°C° 0 mm 2 mps 755 mmHg 45%
20:00 +25°C° 0 mm 2 mps 755 mmHg 47%
21:00 +23°C° 0 mm 2 mps 755 mmHg 49%
22:00 +23°C° 0 mm 2 mps 756 mmHg 51%
23:00 +21°C° 0 mm 2 mps 756 mmHg 52%

17 May, Monday

Time Temperature Precipitation Wind Pressure Humidity
00:00 +21°C° 0 mm 1 mps 756 mmHg 54%
01:00 +21°C° 0 mm 1 mps 756 mmHg 55%
02:00 +20°C° 0 mm 1 mps 756 mmHg 55%
03:00 +20°C° 0 mm 1 mps 756 mmHg 56%
04:00 +20°C° 0 mm 1 mps 756 mmHg 57%
05:00 +19°C° 0 mm 2 mps 756 mmHg 57%
06:00 +20°C° 0 mm 2 mps 756 mmHg 58%
07:00 +23°C° 0 mm 2 mps 756 mmHg 53%
08:00 +25°C° 0 mm 3 mps 756 mmHg 47%
09:00 +26°C° 0 mm 3 mps 756 mmHg 41%
10:00 +28°C° 0 mm 4 mps 756 mmHg 36%
11:00 +29°C° 0 mm 4 mps 756 mmHg 32%
12:00 +32°C° 0 mm 5 mps 756 mmHg 27%
13:00 +32°C° 0 mm 5 mps 755 mmHg 26%
14:00 +32°C° 0 mm 5 mps 755 mmHg 26%
15:00 +32°C° 0 mm 5 mps 755 mmHg 26%
16:00 +30°C° 0 mm 5 mps 755 mmHg 31%
17:00 +29°C° 0 mm 4 mps 755 mmHg 35%
18:00 +28°C° 0 mm 3 mps 755 mmHg 40%
19:00 +26°C° 0 mm 3 mps 755 mmHg 41%
20:00 +25°C° 0 mm 3 mps 755 mmHg 42%
21:00 +22°C° 0 mm 3 mps 755 mmHg 43%
22:00 +21°C° 0 mm 3 mps 755 mmHg 45%
23:00 +21°C° 0 mm 3 mps 755 mmHg 46%
Show more

We Need Your Consent

Meteoprog and our Service Providers may store and access personal data such as cookies, device identifiers or other similar technologies on your device and process such data to personalise content and ads, as well as provide social media features and to analyse the traffic.

  • Store and/or access information on your device

    Cookies, device identifiers or other information can be stored or accessed on your device for the purposes indicated above.

  • Personalised ads and content, ad and content measurement, audience insights, and products development

    Ads and content can be personalised based on a profile. More data can be added to better personalise ads and content. Ad and content performance can be measured. Insights about the audience who saw the ads and content can be derived. Such data can be used to develop or improve user’s experience, systems and software.

By clicking ‘I Agree’ you will allow the use of indicated cookies, device identifiers, web beacons or other similar technologies. Your settings can be changed in the browser on your device.

For certain purposes, legitimate interests may be relied on, rather than consent. You can read more about this in our Privacy and Cookie Policy.